Wind_Speed
9 8 7 7 7 6 6 5 5 5 5 4 4 3 3 2 2 1 1 1 1 1 1 2 2 3 2 2 2 2 2 3 3 3 4 4 4 4 3 2 2 2 3
10 9 8 7 7 7 7 6 6 6 6 5 4 4 3 2 2 2 2 1 1 1 2 2 2 3 3 3 3 3 3 3 4 4 4 4 4 4 3 4 4 4 4
11 10 9 8 8 8 8 7 7 6 6 6 5 4 4 3 3 3 2 2 1 2 2 2 2 2 3 3 3 3 3 3 3 3 4 4 4 4 4 4 4 4 4
12 11 10 9 9 9 9 9 8 7 7 7 6 5 5 4 4 3 3 2 2 2 2 2 2 2 3 2 3 3 3 3 3 3 4 4 4 4 4 5 5 5 5
13 12 11 11 10 9 10 10 9 8 8 7 7 6 5 5 4 4 3 3 2 2 3 3 3 3 3 3 4 4 4 4 4 4 4 4 4 4 5 5 5 5 5
13 12 12 12 12 11 11 11 10 9 9 8 7 6 6 5 5 5 4 3 3 3 3 3 3 3 3 3 4 4 4 5 4 4 4 4 4 4 4 5 5 5 6
14 14 13 13 12 12 11 12 11 10 9 9 8 7 6 6 6 5 5 4 3 3 3 3 3 3 4 4 4 4 3 3 3 3 3 4 4 5 5 5 5 6 6
16 15 14 14 14 13 13 13 12 12 10 10 9 8 7 6 5 6 5 5 4 4 4 4 4 4 4 3 4 3 3 3 3 3 3 4 5 5 6 6 6 6 7
17 17 16 15 14 14 14 14 14 14 12 11 10 10 9 8 7 6 6 5 5 4 4 4 4 4 4 3 4 4 3 4 4 4 4 5 5 6 6 6 7 7 7
18 18 17 16 15 15 15 15 15 15 14 13 12 11 11 10 9 8 7 7 6 5 4 4 5 5 5 5 5 5 5 5 5 5 5 6 6 7 7 7 8 8 9
19 18 17 17 16 15 15 15 16 15 15 15 14 13 13 12 11 10 9 9 8 7 6 6 6 6 6 6 6 6 6 6 6 6 6 7 8 8 8 8 9 10 11
21 20 18 17 16 15 16 16 16 17 16 16 16 15 14 14 13 12 11 11 10 9 9 8 8 7 7 6 6 6 7 7 7 8 8 9 9 9 9 10 11 12 12
20 20 19 18 17 16 17 17 18 17 17 17 17 16 15 15 14 14 13 13 12 11 11 10 10 9 9 8 8 8 9 9 9 9 10 10 10 10 11 12 12 13 14
21 21 20 19 18 18 19 19 19 19 18 18 18 17 17 16 16 15 15 15 14 13 13 12 12 11 11 11 11 10 11 11 11 11 12 12 12 12 13 14 14 15 15
20 20 20 20 19 19 20 20 21 20 19 19 19 19 18 17 17 16 16 16 16 15 14 14 14 13 13 13 13 13 13 13 13 13 13 13 14 15 15 16 16 17 18
19 20 19 19 19 20 21 21 22 21 21 21 20 20 20 19 18 18 18 18 18 17 16 16 16 16 15 15 15 15 15 14 14 14 15 16 16 17 18 18 19 20 21
18 19 19 19 19 20 21 21 22 23 23 22 22 22 22 21 20 20 20 19 19 18 18 18 18 18 17 17 17 17 17 17 17 17 18 18 19 19 20 21 22 23 24
19 19 19 19 19 20 21 22 23 23 23 22 23 23 23 22 22 21 21 20 20 20 21 20 20 20 20 20 19 18 18 19 20 20 21 21 21 22 23 23 24 25 26
18 19 19 19 19 19 20 21 22 23 23 23 23 23 24 24 23 23 22 22 22 22 22 22 22 22 22 21 21 21 21 22 22 23 23 24 24 25 26 27 28 28 29
18 19 20 20 20 20 20 21 22 23 23 24 24 24 24 25 25 25 24 24 24 23 23 24 24 24 24 24 24 24 25 25 25 25 26 26 27 28 29 30 30 31 32
18 19 20 20 20 20 21 22 22 24 24 24 24 24 24 25 26 26 25 26 25 25 25 26 26 26 26 27 27 28 28 27 27 28 28 29 30 30 31 32 33 34 35
18 18 19 20 20 21 21 22 22 23 24 24 25 24 24 25 26 27 27 27 27 28 28 28 28 29 28 29 29 29 29 29 29 30 31 32 33 34 35 35 36 36 37
18 19 19 20 21 21 21 22 23 24 23 24 24 24 24 24 24 26 27 28 28 29 29 29 29 30 30 30 30 30 31 31 32 33 34 34 36 36 37 38 38 39 39
19 19 20 21 21 21 21 22 22 23 24 24 24 23 25 25 26 27 28 28 28 30 31 31 31 32 32 33 33 33 34 35 35 36 37 37 38 39 40 41 41 41 42
21 21 21 21 21 20 21 22 23 23 23 24 24 25 25 26 27 29 29 29 30 32 33 33 34 34 34 35 35 35 35 37 37 39 39 40 41 41 42 43 44 44 45
20 21 22 22 21 21 21 22 22 23 24 25 25 26 27 28 29 29 29 30 31 33 34 35 35 35 35 36 37 37 37 38 40 41 41 42 43 44 44 45 45 46 47
Wind_Direction
197 196 196 195 194 193 190 189 189 192 192 190 190 196 190 189 189 197 218 243 248 283 287 270 254 253 259 264 262 255 250 258 258 263 260 262 263 262 261 258 277 284 291
206 205 204 205 204 204 204 204 205 206 205 204 207 212 214 211 203 203 224 230 244 285 286 278 264 257 261 267 264 257 256 263 268 268 275 274 272 266 261 263 274 276 281
213 212 212 214 213 212 212 213 215 215 212 211 213 217 216 214 219 218 219 223 260 290 293 289 293 282 270 274 270 256 263 276 284 277 279 283 279 279 272 272 280 278 281
219 219 217 218 219 217 216 217 219 217 216 216 218 220 220 219 223 216 217 232 257 281 291 304 299 297 289 276 275 265 267 277 279 278 282 278 277 279 275 280 285 285 285
222 224 224 223 220 218 218 220 222 220 218 218 217 221 223 223 222 221 226 234 249 264 283 297 302 295 293 281 274 274 276 278 276 277 288 287 281 281 282 285 290 288 287
228 227 226 225 224 223 222 224 222 221 218 215 216 220 222 225 227 228 230 236 254 263 276 285 293 290 295 290 281 282 285 281 280 285 291 300 293 288 288 290 295 294 295
232 231 227 229 230 229 226 226 222 221 218 215 215 217 219 226 229 230 232 240 248 260 263 273 282 290 290 287 284 283 291 288 284 288 299 304 303 294 293 296 295 295 297
234 235 233 232 231 229 228 228 225 223 221 218 217 220 225 225 230 234 240 244 248 255 264 273 284 288 289 289 287 286 290 288 287 284 293 300 303 302 297 295 301 301 299
235 235 235 232 230 228 229 228 226 225 225 224 224 225 228 230 232 234 239 242 242 252 262 272 286 290 285 285 282 280 279 285 289 287 288 300 309 308 305 301 297 301 303
237 236 235 232 228 230 231 230 228 226 225 226 227 228 232 235 236 237 241 243 248 254 263 275 284 287 280 277 275 273 277 280 283 289 290 299 305 304 303 304 302 299 298
237 236 237 234 233 233 233 233 231 229 229 230 231 232 235 237 237 240 243 244 249 255 263 272 282 285 281 278 278 277 274 277 281 287 291 296 299 300 301 303 302 300 299
235 233 233 232 233 234 236 237 234 232 232 232 233 234 237 238 240 242 244 245 249 255 260 265 272 276 277 279 279 280 278 278 279 285 290 292 295 297 298 300 301 301 299
236 232 231 233 233 235 238 237 236 235 236 235 234 235 238 240 242 244 247 248 248 254 259 263 268 270 273 276 277 276 277 278 278 282 286 288 291 293 295 296 297 298 299
234 233 235 235 234 236 238 236 236 237 239 238 237 239 240 242 244 246 248 248 247 251 256 262 266 268 270 274 276 278 279 278 278 281 285 287 290 291 293 294 296 296 296
236 236 237 237 237 238 238 236 236 237 240 240 239 240 241 243 244 246 247 247 249 251 255 259 264 266 268 271 274 277 280 280 281 283 287 289 290 291 291 292 294 295 296
238 235 235 237 238 238 238 238 236 236 238 240 241 241 243 245 246 247 248 250 253 254 256 259 263 266 268 270 274 276 277 279 281 284 284 286 288 289 290 291 293 294 294
237 237 239 239 240 240 237 237 237 237 239 241 242 243 244 246 249 250 251 252 254 256 258 260 262 265 268 270 272 273 276 279 280 282 284 285 286 287 288 290 291 292 292
238 238 240 239 241 241 239 237 237 237 239 241 243 243 244 247 251 252 254 255 256 257 259 261 263 266 269 271 271 273 276 279 281 282 284 285 285 286 288 289 291 292 292
240 241 243 242 243 241 240 240 239 239 240 242 245 245 245 249 252 254 256 256 257 258 260 262 264 267 269 270 271 273 276 279 280 282 284 284 286 287 288 289 290 291 292
243 243 244 244 245 244 243 244 244 242 243 244 248 248 248 251 253 254 255 255 257 259 261 263 264 267 269 270 271 273 276 278 280 281 283 284 285 286 288 289 290 291 292
246 245 243 245 245 246 247 248 248 247 246 246 248 251 252 254 254 254 255 257 258 259 262 264 265 267 270 271 273 274 277 278 280 281 282 284 286 287 289 290 291 291 291
247 244 245 246 247 247 249 250 249 248 248 248 249 252 255 256 256 256 257 258 259 262 264 266 268 268 270 272 274 276 276 277 279 281 283 285 287 289 290 291 291 291 292
248 245 246 246 247 248 249 251 250 249 250 250 251 252 255 258 259 260 261 261 259 261 264 266 268 269 270 271 272 275 277 277 279 281 283 285 287 288 289 290 291 291 291
249 248 248 248 248 250 252 251 250 251 251 252 253 254 257 260 261 261 263 262 262 264 265 267 270 270 272 273 273 274 277 278 280 282 283 285 286 288 289 291 291 291 291
249 249 248 248 249 250 252 252 252 253 254 254 256 257 259 263 264 263 264 264 266 267 268 269 270 272 273 273 273 275 277 279 281 282 284 285 286 287 289 290 290 290 290
252 251 250 248 249 252 255 255 255 257 257 256 257 260 262 265 266 267 265 266 268 270 270 270 271 272 273 275 275 276 277 279 281 283 284 285 286 287 289 290 290 290 290
Height
5899 5899 5900 5901 5901 5902 5903 5903 5904 5904 5905 5905 5906 5906 5906 5907 5907 5907 5907 5907 5907 5907 5906 5906 5906 5906 5906 5906 5906 5905 5905 5905 5905 5905 5905 5905 5905 5905 5905 5905 5905 5905 5905
5898 5899 5899 5900 5901 5901 5902 5903 5903 5904 5904 5905 5906 5906 5906 5906 5906 5907 5907 5906 5906 5906 5906 5906 5906 5906 5906 5905 5905 5905 5905 5905 5905 5905 5905 5905 5904 5904 5904 5904 5904 5904 5904
5897 5898 5898 5899 5900 5901 5901 5902 5903 5903 5904 5904 5905 5905 5906 5906 5906 5906 5906 5906 5906 5906 5906 5906 5906 5905 5905 5905 5905 5905 5905 5905 5904 5904 5904 5904 5904 5904 5904 5904 5904 5904 5904
5895 5896 5897 5898 5899 5900 5900 5901 5902 5902 5903 5904 5904 5905 5905 5905 5905 5906 5906 5906 5906 5906 5906 5906 5906 5905 5905 5905 5904 5904 5904 5904 5904 5904 5903 5903 5903 5903 5903 5903 5903 5903 5903
5893 5894 5895 5896 5897 5898 5899 5900 5901 5902 5902 5903 5903 5904 5904 5905 5905 5905 5906 5906 5906 5906 5905 5905 5905 5905 5905 5904 5904 5903 5903 5903 5903 5903 5903 5902 5902 5902 5902 5902 5902 5902 5902
5891 5892 5893 5894 5896 5897 5898 5899 5900 5900 5901 5902 5903 5903 5904 5904 5905 5905 5905 5905 5905 5905 5905 5905 5904 5904 5904 5904 5903 5903 5903 5902 5902 5902 5902 5902 5902 5902 5901 5901 5901 5901 5901
5889 5890 5892 5893 5894 5895 5896 5897 5898 5899 5900 5901 5902 5903 5903 5903 5904 5904 5904 5904 5904 5904 5904 5904 5904 5904 5903 5903 5902 5902 5902 5902 5901 5901 5901 5901 5901 5901 5900 5900 5900 5900 5899
5886 5888 5889 5891 5892 5893 5894 5895 5896 5897 5898 5899 5900 5901 5902 5903 5903 5903 5904 5904 5904 5904 5903 5903 5903 5903 5902 5902 5902 5901 5901 5901 5901 5901 5901 5900 5900 5900 5899 5899 5899 5898 5898
5883 5884 5886 5888 5889 5890 5892 5893 5895 5896 5897 5898 5899 5900 5901 5902 5902 5903 5903 5903 5903 5903 5903 5903 5902 5902 5901 5901 5901 5901 5901 5900 5900 5900 5900 5900 5899 5899 5898 5898 5897 5897 5896
5879 5881 5883 5884 5886 5888 5889 5891 5892 5894 5895 5896 5897 5898 5900 5900 5901 5902 5902 5902 5902 5903 5902 5902 5902 5901 5901 5900 5900 5900 5900 5899 5899 5899 5899 5899 5898 5898 5897 5896 5896 5895 5895
5876 5878 5880 5881 5883 5885 5887 5888 5890 5891 5893 5894 5895 5896 5897 5898 5899 5900 5901 5901 5901 5901 5901 5901 5901 5900 5900 5899 5899 5899 5899 5898 5898 5898 5898 5897 5897 5896 5895 5895 5894 5893 5892
5872 5874 5876 5878 5880 5882 5884 5885 5887 5888 5890 5891 5892 5894 5895 5896 5897 5898 5898 5899 5899 5900 5900 5900 5899 5899 5899 5898 5898 5898 5897 5897 5897 5896 5896 5896 5895 5894 5893 5893 5892 5891 5890
5868 5871 5872 5874 5876 5878 5880 5882 5884 5885 5886 5888 5889 5891 5892 5893 5894 5895 5896 5896 5897 5898 5898 5898 5898 5897 5897 5897 5896 5896 5895 5895 5895 5894 5894 5893 5893 5892 5891 5890 5889 5888 5887
5865 5867 5869 5870 5873 5874 5876 5878 5880 5882 5883 5884 5886 5887 5889 5890 5891 5892 5893 5894 5894 5895 5895 5895 5895 5895 5895 5894 5894 5893 5893 5893 5892 5892 5891 5890 5890 5889 5888 5887 5886 5885 5884
5861 5863 5865 5867 5869 5870 5872 5874 5876 5878 5879 5881 5882 5884 5885 5886 5887 5888 5889 5890 5891 5892 5892 5892 5892 5892 5892 5891 5891 5890 5890 5889 5889 5888 5888 5887 5887 5886 5885 5884 5883 5881 5880
5857 5859 5860 5862 5864 5866 5868 5870 5872 5874 5875 5877 5878 5880 5881 5883 5884 5885 5886 5886 5887 5888 5888 5888 5888 5888 5888 5888 5887 5887 5886 5886 5885 5885 5884 5883 5883 5882 5881 5880 5878 5877 5876
5853 5855 5857 5858 5860 5861 5863 5865 5867 5869 5871 5872 5874 5875 5877 5878 5879 5880 5881 5882 5883 5883 5884 5884 5884 5884 5884 5883 5883 5882 5882 5881 5881 5880 5880 5879 5878 5877 5875 5874 5873 5872 5870
5849 5851 5852 5854 5855 5857 5858 5860 5862 5864 5866 5867 5869 5870 5872 5873 5875 5876 5876 5877 5878 5878 5879 5879 5879 5879 5879 5878 5878 5877 5877 5876 5876 5875 5874 5873 5872 5871 5870 5868 5867 5865 5864
5845 5847 5849 5850 5851 5852 5854 5856 5858 5859 5861 5863 5864 5865 5867 5868 5869 5870 5871 5872 5873 5873 5874 5874 5874 5874 5873 5873 5872 5872 5872 5871 5870 5869 5868 5867 5866 5865 5863 5862 5860 5859 5857
5841 5843 5844 5846 5847 5848 5850 5851 5853 5854 5856 5858 5859 5860 5861 5862 5864 5865 5865 5866 5867 5867 5868 5868 5868 5868 5867 5867 5866 5866 5866 5865 5864 5863 5862 5860 5859 5858 5856 5855 5853 5851 5849
5837 5839 5840 5841 5842 5844 5845 5846 5848 5849 5851 5852 5853 5854 5855 5857 5858 5859 5859 5860 5861 5861 5861 5861 5861 5861 5861 5860 5860 5859 5859 5858 5856 5855 5854 5853 5851 5850 5848 5846 5845 5842 5840
5833 5834 5835 5836 5837 5838 5840 5841 5842 5843 5845 5846 5848 5849 5850 5850 5851 5852 5853 5854 5854 5855 5855 5855 5854 5854 5854 5853 5852 5852 5851 5850 5849 5848 5846 5845 5843 5841 5839 5837 5835 5833 5830
5827 5829 5830 5831 5832 5833 5834 5835 5837 5838 5839 5840 5841 5843 5844 5844 5845 5846 5846 5846 5847 5847 5847 5847 5847 5847 5846 5845 5845 5844 5843 5842 5841 5839 5837 5836 5834 5832 5830 5827 5825 5823 5820
5823 5824 5825 5826 5827 5828 5829 5830 5831 5832 5833 5835 5836 5837 5838 5838 5839 5839 5839 5839 5840 5840 5840 5839 5839 5838 5838 5837 5836 5835 5834 5833 5831 5830 5828 5826 5824 5822 5819 5817 5814 5812 5809
5818 5819 5820 5821 5822 5823 5824 5825 5826 5827 5828 5829 5830 5831 5831 5832 5832 5832 5832 5832 5832 5832 5831 5831 5830 5829 5828 5827 5826 5826 5825 5823 5822 5820 5818 5816 5813 5811 5808 5805 5802 5800 5796
5813 5814 5815 5816 5817 5818 5819 5819 5820 5821 5822 5823 5823 5824 5825 5825 5825 5824 5824 5824 5824 5823 5822 5822 5821 5820 5819 5818 5816 5815 5814 5813 5811 5809 5807 5805 5802 5799 5797 5794 5790 5786 5783